Weather in Poroshkovo

Ukraine / Zakarpattia District     48°39′51″N   22°45′04″E
temp.,
°C
wind,
m/s
gust,
m/s
humid.,
%
clouds,
%
prec.,
mm/h
press.,
hPa
HPBL,
m
19 may, wed
wed1900:00+8wnw1299100 0.0 1009121
03:00+8wnw1298100 0.0 101062
06:00+7wnw1199100 0.0 101145
09:00+9w1295100 0.1 1012210
12:00+14nw236220 0.2 10111266
15:00+16nw234678 0.3 10101987
18:00+16wnw1247100 0.0 10091657
21:00+9ne2182100 0.1 101017
20 may, thu
thu2000:00+8ne3485100 0.0 101189
03:00+8ne3488100 0.0 1010106
06:00+8ne3787100 0.0 1009282
09:00+11ne41075100 0.1 1010953
12:00+13ne51063100 0.0 10101265
15:00+13nne61061100 0.1 10111518
18:00+13nne51063100 0.0 10121346
21:00+10nne51175100 0.0 10141031
21 may, fri
fri2100:00+9nne41172100 0.0 1015974
03:00+8nne387992 0.0 1017389
06:00+9nne2973100 0.0 1017695
09:00+12nne376348 0.0 1017888
12:00+16ne344324 0.0 10172069
15:00+19e113694 0.0 10152483
18:00+16wsw235948 0.0 1015654
21:00+10sw11887 0.3 101710
22 may, sat
sat2200:00+8ese119341 0.0 101711
03:00+7ese229539 0.0 101720
06:00+7ese2295100 0.0 101622
09:00+11sse2386100 0.0 1016241
12:00+14s4665100 0.0 10141040
15:00+16ssw4762100 0.1 10131511
18:00+14s4878100 0.3 10121058
21:00+12ssw31095100 1.3 1011638
23 may, sun
sun2300:00+10s310100100 8.7 1011796
03:00+10ssw4898100 10.9 1010678
06:00+8nnw2598100 1.9 1013273
09:00+9w129196 2.3 1015225
12:00+13sw346473 0.3 10151339
15:00+12sw3687100 2.6 1016912
18:00+12wsw259066 4.3 1016666
21:00+9se019289 6.7 101811